Wind_Speed
19 17 15 14 13 12 9 8 8 8 10 13 16 19 20 17 15 13 12 11 11 11 10 11 11 11 12 12 13 15 16 16 16 17 17 17 17 18 18 19 19 19 20 20 20 20 21 21 21
22 19 16 15 14 13 12 10 8 9 11 13 15 17 16 14 11 11 10 10 10 9 9 10 10 10 10 11 11 12 12 13 13 14 15 15 16 17 19 19 20 21 22 22 23 23 23 23 23
18 17 16 16 16 15 13 11 7 8 13 15 14 14 12 8 7 7 8 8 9 9 8 9 9 9 10 11 11 11 11 11 12 12 13 14 16 17 19 20 22 23 23 24 24 23 23 23 24
14 14 16 17 18 16 13 9 6 7 12 13 12 10 7 4 6 7 8 9 9 8 7 6 7 8 9 10 10 11 11 11 12 13 14 15 16 18 19 20 21 22 22 22 22 21 20 20 21
14 15 18 20 20 16 12 6 3 7 10 10 8 6 4 5 8 8 8 9 8 7 6 6 6 6 7 8 9 9 10 11 12 12 13 14 15 17 18 18 19 19 19 19 18 18 18 18 19
15 19 23 24 21 16 10 4 2 7 10 9 7 5 5 7 9 9 9 9 8 7 7 6 6 6 6 7 7 8 9 9 10 11 12 13 14 15 15 16 17 18 18 18 18 19 19 19 20
18 23 24 23 19 14 8 1 6 10 12 11 7 5 7 9 11 10 10 9 8 8 9 9 8 7 6 6 6 7 8 8 8 10 11 13 14 15 16 17 18 19 19 20 20 20 21 21 21
22 26 25 23 18 12 5 1 6 12 14 11 7 6 8 9 11 11 12 11 10 9 10 10 9 8 7 6 6 7 8 8 9 11 12 14 15 16 17 19 19 20 21 21 21 21 20 21 22
24 27 26 23 19 14 9 4 9 13 13 9 7 6 8 9 10 12 13 13 11 10 10 10 10 9 9 8 8 8 9 10 11 12 13 15 15 16 17 18 19 19 19 20 20 20 20 21 21
26 27 25 24 21 18 14 10 12 14 14 11 7 6 7 8 10 12 13 13 11 11 10 10 10 11 10 10 10 10 11 12 12 12 13 14 14 15 16 16 17 17 18 18 18 18 19 20 20
28 27 26 24 21 19 14 12 13 15 15 14 11 10 10 9 10 12 11 12 11 12 12 11 11 11 11 11 11 11 12 13 13 12 12 13 13 13 13 13 14 15 15 15 14 15 16 17 18
28 28 26 24 22 19 15 14 15 16 16 15 14 14 15 12 12 12 13 12 10 12 13 14 14 13 12 11 11 11 12 12 13 13 12 12 12 12 12 11 12 13 13 14 13 14 15 16 18
27 29 26 25 23 20 19 18 19 20 19 17 16 16 17 16 15 15 14 13 12 14 15 15 16 15 12 10 10 10 12 13 13 14 14 13 13 13 13 12 13 13 14 15 15 16 17 18 20
27 31 30 29 25 21 22 24 24 23 22 21 19 19 21 21 20 19 17 16 17 18 18 19 17 14 12 10 10 10 12 14 15 15 16 16 16 17 17 17 17 17 18 19 21 21 22 23 24
30 32 30 28 26 22 22 25 27 25 26 25 22 22 24 25 25 24 22 20 22 22 21 22 20 18 16 13 10 10 11 14 16 17 18 18 19 20 21 23 23 24 25 26 27 28 29 30 30
33 32 29 28 26 23 23 23 24 27 29 28 25 24 27 29 30 29 27 25 27 26 23 26 25 24 23 20 15 13 13 15 17 20 21 22 23 24 26 28 29 30 32 32 33 35 36 37 37
33 32 29 29 27 23 23 19 19 26 29 28 27 26 28 31 33 33 33 31 31 28 27 28 29 31 29 25 22 19 18 18 21 23 25 26 27 29 30 32 34 35 37 38 39 39 40 42 42
32 33 32 29 25 23 22 19 17 22 26 27 26 27 30 33 34 36 36 35 33 32 32 32 32 34 32 30 29 27 25 24 25 27 29 30 32 33 34 36 38 39 40 41 42 43 44 44 45
31 34 34 30 26 27 24 21 19 20 24 25 27 30 33 35 36 37 37 37 36 36 36 36 36 35 37 36 34 31 30 29 30 32 34 35 36 37 39 40 41 42 43 43 44 44 45 46 46
33 34 33 29 29 30 28 26 24 24 25 27 29 32 35 38 39 39 40 40 39 38 38 39 39 40 39 39 38 36 33 33 35 36 37 38 39 41 43 44 44 44 44 44 43 44 45 45 46
32 32 30 28 29 31 32 31 27 26 26 29 32 34 37 40 41 41 42 42 41 40 39 40 42 43 42 41 41 38 37 37 38 38 39 40 42 43 44 44 44 44 45 44 43 43 44 46 47
28 27 28 28 31 33 34 36 30 28 29 31 32 34 36 39 40 42 40 39 38 38 39 42 44 45 46 45 42 39 38 37 37 38 40 41 43 44 45 46 45 46 46 45 45 45 46 48 50
24 22 24 26 29 32 34 37 33 31 33 35 36 38 39 40 41 40 37 36 36 37 41 43 45 48 47 42 40 37 35 36 37 38 40 42 43 45 46 46 47 47 47 48 48 49 50 51 53
19 20 24 27 28 28 24 29 28 24 31 36 40 42 42 41 39 37 35 35 36 39 42 44 47 46 44 42 39 37 36 36 38 39 41 42 44 45 46 47 48 49 49 50 51 52 53 55 57
21 22 24 26 25 20 15 21 17 17 23 28 31 33 33 34 33 33 32 33 36 40 43 45 47 47 46 44 41 39 37 38 40 41 43 44 46 47 48 49 49 50 50 51 53 55 57 59 60
21 23 24 23 21 18 18 19 14 17 20 21 22 23 25 26 28 30 31 33 37 41 44 46 46 46 45 43 41 40 40 41 43 44 45 47 48 49 50 50 51 51 52 54 57 58 60 61 62
21 23 22 23 22 22 21 19 18 19 20 22 23 24 25 27 29 31 33 36 39 42 43 44 43 41 40 40 40 41 43 44 45 47 48 50 52 52 53 54 54 55 57 59 60 62 63 64 63
25 22 24 26 25 25 23 20 21 23 24 25 27 28 29 30 32 34 36 39 41 42 43 42 40 37 37 37 39 42 44 45 47 49 51 53 54 55 56 57 58 59 61 62 63 64 65 64 64
28 28 28 26 25 25 23 22 23 24 27 29 30 31 32 34 35 37 38 40 42 43 42 43 38 34 35 37 40 42 45 47 49 51 53 55 56 57 58 60 62 63 63 64 65 64 63 63 64
27 31 32 31 27 25 24 27 28 29 29 30 32 34 36 37 38 38 40 41 43 44 43 40 35 34 36 39 42 45 47 49 51 53 55 56 58 60 62 64 65 64 63 64 66 64 63 63 62
Wind_Direction
223 214 203 190 182 180 198 229 256 272 287 302 317 319 319 320 324 329 326 315 306 305 305 301 296 292 291 287 279 273 269 267 266 266 265 266 267 267 267 267 267 267 268 268 267 267 266 266 266
228 223 210 196 186 186 203 228 247 271 287 304 313 315 310 309 316 324 322 317 317 316 307 301 299 298 299 297 289 281 274 270 269 268 267 267 268 269 269 269 269 269 270 270 269 268 268 267 266
230 224 212 196 184 189 207 226 232 266 288 302 310 309 301 306 323 331 332 338 339 326 312 301 296 296 297 296 292 289 282 277 273 270 270 270 271 271 271 271 271 271 271 271 270 270 271 271 270
211 208 198 187 180 192 212 225 222 251 283 300 310 306 299 331 1 354 353 359 354 340 326 312 305 299 298 296 295 293 289 285 280 276 276 276 276 275 275 274 274 273 273 273 273 274 274 274 273
193 187 178 171 176 190 207 213 212 278 285 302 317 321 336 21 21 7 359 2 355 342 332 320 312 304 300 298 299 300 300 297 294 290 287 286 284 283 281 278 276 274 274 274 274 276 277 276 276
181 175 166 167 175 185 190 194 267 280 290 304 318 337 7 30 26 9 359 360 349 334 323 317 313 307 306 306 308 310 311 308 305 302 299 294 291 287 282 277 275 273 274 275 277 279 280 279 278
173 168 165 167 175 180 179 153 326 304 297 295 304 350 7 20 25 13 1 359 345 327 319 314 312 313 313 315 318 320 319 315 312 306 300 295 291 287 282 278 276 276 277 279 280 282 282 281 279
171 168 167 169 172 166 151 27 312 292 283 285 306 344 359 13 19 11 1 357 346 329 319 314 311 311 313 319 325 329 325 320 315 309 304 299 294 288 284 281 280 280 281 281 282 283 283 281 279
173 170 173 175 170 158 153 213 268 272 272 278 303 337 1 9 14 6 357 353 349 339 326 316 311 310 312 317 324 328 326 322 318 313 308 305 300 295 292 290 288 286 285 284 284 285 283 281 281
174 176 182 182 177 168 173 204 243 259 270 284 299 325 341 349 358 356 349 346 346 345 341 327 316 313 311 311 316 322 323 322 320 317 314 312 309 305 301 298 295 293 290 289 288 288 285 283 283
179 185 189 185 180 171 176 203 231 250 265 279 287 299 309 315 334 337 340 343 345 345 345 342 332 324 317 311 311 317 320 321 322 322 322 321 319 316 312 310 306 299 294 291 289 287 283 282 282
187 192 193 188 186 180 180 206 226 245 262 271 280 293 299 295 310 320 323 329 342 346 341 340 335 332 328 321 313 313 315 319 324 326 326 325 325 324 320 314 306 299 295 291 287 283 282 281 281
196 197 199 199 199 198 194 204 225 239 253 264 275 285 291 290 296 304 312 316 320 332 331 329 329 328 327 321 314 310 313 318 322 322 323 323 322 320 315 308 302 299 296 291 287 282 279 278 277
206 206 208 212 217 219 211 211 223 237 251 260 269 278 283 285 290 296 301 309 315 321 323 320 316 314 317 316 312 312 314 314 315 317 318 318 318 315 311 308 305 300 293 287 284 280 278 276 276
215 216 220 224 229 228 225 220 224 236 250 259 267 274 279 285 289 293 295 301 312 317 318 318 309 307 310 309 306 305 305 306 308 310 312 314 315 313 311 308 306 302 299 295 291 289 287 285 284
225 227 229 232 236 236 235 230 227 235 245 255 263 271 277 283 289 293 295 298 307 312 313 315 310 304 305 303 300 299 299 301 303 306 309 310 311 311 309 308 306 305 303 300 297 295 294 292 291
231 235 236 237 244 249 251 245 230 230 237 245 255 266 274 280 287 292 294 299 304 308 311 311 310 305 302 299 297 297 295 296 299 302 305 306 307 306 306 306 305 303 302 300 297 294 293 292 292
236 239 238 237 239 242 246 247 234 229 235 242 252 263 271 278 285 290 292 296 300 304 307 308 306 305 301 297 297 293 291 291 295 298 298 299 300 302 302 303 302 301 300 298 295 292 291 290 290
234 237 238 235 228 229 230 237 231 228 236 242 251 262 270 277 283 287 292 296 299 301 304 305 304 300 298 294 291 287 284 285 288 291 292 293 294 296 298 299 300 298 297 297 294 291 289 289 289
229 233 233 230 226 232 233 237 238 233 236 242 250 259 268 275 281 287 292 295 297 298 300 301 301 297 292 288 286 281 279 281 282 283 285 287 290 292 294 296 297 296 295 296 294 292 290 290 290
230 234 232 227 222 230 238 241 241 242 241 241 246 255 263 271 278 285 289 292 294 295 296 297 296 294 287 285 282 277 276 277 277 279 281 285 287 288 291 294 296 295 295 295 293 292 291 292 292
227 231 231 226 225 228 238 245 239 239 240 241 247 256 263 269 274 279 284 287 290 291 292 293 291 290 287 283 278 277 276 273 276 279 282 284 286 289 293 296 297 296 295 294 293 293 292 292 293
221 221 228 233 237 239 238 248 247 241 242 244 249 255 261 265 268 273 278 283 286 286 287 288 287 287 286 280 280 277 276 277 280 282 284 286 289 292 295 296 296 295 294 294 294 293 293 293 293
216 221 232 238 243 247 248 251 253 247 246 246 249 253 257 260 263 267 274 280 282 281 282 283 286 288 287 286 288 284 283 282 283 285 286 288 290 292 294 294 295 295 294 294 294 294 294 294 294
213 225 235 240 244 247 240 245 244 238 241 246 248 250 252 254 258 264 270 274 274 274 276 279 285 289 291 292 293 289 287 286 286 287 288 290 290 291 292 294 295 295 295 294 294 293 293 293 292
216 227 236 242 245 242 232 239 242 247 248 253 257 259 259 257 258 262 265 267 268 269 273 278 284 288 291 292 291 289 288 287 288 289 290 290 291 292 292 293 295 295 295 295 294 293 292 291 291
223 234 243 250 250 248 239 239 246 253 261 265 267 270 271 266 265 264 265 266 267 270 274 277 282 286 289 289 288 288 287 287 288 289 290 290 291 291 292 293 294 294 296 296 295 293 292 292 292
223 233 244 249 252 252 249 247 247 245 252 259 264 268 271 272 272 272 271 271 271 274 277 279 281 283 286 287 287 287 287 287 287 287 288 289 289 290 292 293 295 296 298 297 296 295 294 293 294
226 227 235 243 248 252 255 254 250 249 249 252 257 262 267 270 273 276 277 277 278 279 281 283 281 284 286 286 286 286 286 286 285 286 287 288 289 291 293 295 297 298 298 298 296 295 297 297 296
233 230 231 234 239 247 254 255 254 254 254 256 259 262 266 270 274 277 278 279 280 282 283 285 284 286 286 285 284 284 284 284 285 286 287 288 290 293 295 296 297 297 296 297 297 297 299 299 298
Height
5897 5900 5903 5906 5908 5909 5907 5905 5904 5904 5904 5906 5907 5907 5905 5904 5904 5905 5902 5900 5899 5897 5897 5897 5898 5898 5897 5897 5897 5896 5896 5896 5896 5896 5896 5896 5896 5896 5896 5896 5896 5896 5896 5896 5895 5895 5895 5894 5894
5894 5897 5901 5904 5906 5906 5906 5905 5904 5903 5903 5905 5907 5907 5905 5904 5902 5901 5899 5898 5897 5896 5896 5896 5897 5897 5897 5896 5896 5895 5895 5895 5895 5895 5895 5894 5894 5894 5894 5894 5894 5893 5893 5893 5892 5892 5891 5891 5891
5893 5895 5899 5902 5904 5905 5905 5904 5903 5902 5901 5904 5906 5905 5904 5903 5901 5899 5897 5896 5896 5895 5895 5895 5895 5895 5895 5895 5895 5895 5895 5894 5894 5894 5894 5893 5893 5893 5892 5892 5891 5891 5890 5889 5889 5888 5888 5887 5887
5891 5894 5897 5900 5902 5903 5903 5903 5902 5901 5901 5903 5904 5904 5902 5902 5900 5898 5896 5895 5895 5894 5894 5894 5894 5894 5894 5894 5894 5893 5893 5893 5893 5892 5892 5892 5891 5890 5890 5889 5889 5888 5887 5887 5886 5885 5884 5884 5883
5889 5891 5894 5897 5899 5900 5900 5900 5899 5900 5902 5903 5904 5903 5901 5901 5899 5896 5895 5895 5894 5894 5894 5893 5893 5892 5892 5892 5892 5892 5891 5891 5891 5890 5890 5889 5889 5888 5888 5887 5886 5886 5885 5884 5883 5883 5882 5881 5880
5888 5890 5892 5894 5896 5897 5897 5897 5897 5899 5901 5902 5902 5901 5900 5901 5899 5896 5895 5895 5894 5894 5894 5893 5892 5892 5891 5891 5890 5890 5890 5889 5888 5888 5887 5887 5886 5886 5885 5885 5884 5884 5883 5882 5881 5880 5880 5879 5878
5887 5889 5891 5894 5895 5896 5896 5894 5895 5896 5899 5900 5901 5900 5899 5900 5900 5897 5896 5895 5895 5894 5893 5892 5892 5891 5890 5890 5889 5888 5888 5887 5887 5886 5885 5885 5884 5883 5883 5882 5882 5881 5880 5880 5879 5878 5877 5876 5875
5885 5888 5890 5893 5894 5894 5894 5893 5895 5896 5897 5898 5899 5900 5899 5899 5899 5897 5896 5895 5894 5893 5892 5892 5891 5890 5889 5888 5888 5887 5886 5886 5885 5884 5883 5882 5882 5881 5880 5879 5879 5878 5877 5876 5875 5875 5874 5873 5871
5884 5887 5888 5891 5891 5891 5892 5894 5896 5896 5896 5898 5899 5899 5899 5898 5898 5897 5896 5894 5893 5892 5891 5890 5889 5888 5888 5887 5886 5885 5884 5884 5883 5882 5881 5880 5879 5878 5877 5876 5875 5874 5873 5872 5872 5871 5870 5869 5868
5883 5886 5888 5889 5889 5888 5889 5892 5894 5894 5894 5896 5897 5897 5897 5898 5898 5898 5896 5894 5892 5891 5890 5889 5888 5887 5886 5885 5884 5883 5883 5882 5881 5879 5878 5877 5876 5875 5874 5873 5871 5870 5870 5869 5868 5868 5866 5865 5865
5881 5884 5885 5886 5886 5886 5888 5890 5891 5891 5892 5894 5895 5895 5896 5896 5897 5898 5896 5894 5892 5891 5890 5888 5886 5885 5885 5884 5883 5882 5881 5880 5878 5877 5875 5874 5873 5872 5871 5870 5869 5868 5867 5866 5866 5865 5863 5862 5861
5879 5881 5882 5883 5883 5883 5885 5888 5889 5889 5890 5892 5892 5893 5894 5894 5895 5897 5896 5894 5892 5891 5889 5887 5885 5883 5882 5881 5880 5879 5878 5877 5876 5875 5874 5872 5871 5870 5869 5868 5867 5865 5864 5864 5863 5862 5860 5859 5857
5876 5878 5879 5879 5880 5880 5882 5885 5887 5887 5887 5888 5889 5890 5890 5891 5893 5894 5894 5893 5892 5890 5889 5887 5884 5882 5881 5880 5878 5877 5876 5875 5874 5873 5872 5871 5870 5868 5867 5866 5865 5864 5862 5861 5859 5858 5857 5855 5854
5873 5873 5874 5875 5877 5878 5879 5881 5883 5885 5885 5885 5886 5887 5888 5888 5889 5890 5891 5890 5889 5888 5887 5885 5884 5882 5881 5879 5877 5875 5874 5872 5872 5871 5870 5869 5868 5866 5864 5863 5862 5861 5860 5858 5856 5855 5853 5851 5849
5868 5868 5870 5873 5874 5875 5877 5879 5881 5883 5882 5882 5883 5884 5884 5884 5884 5885 5886 5886 5885 5884 5883 5881 5880 5879 5878 5877 5876 5874 5872 5870 5869 5867 5866 5865 5864 5862 5861 5859 5858 5857 5855 5853 5851 5849 5847 5845 5843
5862 5864 5867 5870 5871 5873 5875 5876 5880 5880 5878 5878 5878 5879 5880 5879 5879 5880 5881 5881 5880 5878 5877 5876 5875 5873 5872 5872 5871 5870 5869 5867 5865 5863 5861 5860 5858 5856 5855 5853 5851 5849 5848 5846 5844 5842 5839 5837 5835
5858 5861 5863 5866 5868 5870 5870 5873 5877 5876 5875 5874 5874 5875 5875 5875 5874 5874 5874 5874 5874 5873 5872 5871 5869 5867 5865 5864 5865 5864 5863 5861 5859 5857 5855 5853 5852 5850 5848 5847 5845 5843 5841 5839 5837 5834 5831 5829 5827
5853 5855 5857 5861 5864 5864 5864 5867 5870 5871 5871 5871 5870 5870 5870 5870 5869 5868 5868 5868 5868 5868 5867 5866 5864 5860 5857 5856 5857 5856 5856 5854 5852 5850 5849 5847 5845 5843 5841 5840 5838 5835 5833 5831 5828 5825 5823 5820 5818
5846 5848 5851 5855 5858 5856 5856 5858 5862 5865 5865 5866 5866 5865 5864 5864 5863 5862 5862 5862 5862 5862 5861 5860 5858 5855 5852 5850 5849 5848 5848 5846 5845 5843 5841 5839 5838 5836 5834 5831 5829 5826 5824 5821 5819 5816 5813 5810 5808
5837 5840 5843 5849 5852 5851 5850 5852 5854 5857 5858 5860 5861 5861 5859 5858 5857 5856 5855 5855 5856 5856 5855 5853 5851 5848 5845 5843 5841 5840 5840 5839 5838 5835 5833 5831 5830 5828 5825 5823 5820 5817 5814 5811 5809 5806 5803 5800 5797
5831 5834 5838 5842 5845 5844 5844 5845 5848 5850 5852 5854 5855 5856 5855 5854 5852 5851 5850 5850 5850 5849 5848 5846 5843 5840 5835 5833 5831 5831 5831 5830 5829 5827 5825 5823 5821 5819 5816 5813 5810 5808 5805 5802 5799 5796 5793 5789 5786
5826 5830 5832 5834 5836 5837 5839 5838 5843 5845 5846 5847 5849 5849 5849 5847 5846 5846 5845 5845 5844 5843 5841 5838 5836 5832 5828 5823 5820 5821 5821 5821 5820 5818 5817 5815 5812 5809 5806 5804 5801 5798 5795 5792 5788 5785 5782 5779 5774
5821 5824 5826 5827 5829 5831 5833 5833 5837 5840 5841 5842 5842 5842 5842 5841 5841 5840 5840 5839 5838 5836 5834 5831 5828 5824 5818 5814 5812 5812 5812 5812 5811 5810 5808 5806 5804 5801 5798 5794 5791 5788 5784 5781 5778 5774 5771 5767 5763
5815 5818 5820 5822 5823 5826 5829 5829 5830 5833 5833 5833 5834 5834 5834 5834 5834 5834 5833 5833 5831 5829 5827 5824 5820 5815 5810 5806 5806 5806 5805 5805 5803 5802 5800 5798 5796 5792 5789 5785 5781 5777 5774 5770 5766 5762 5758 5754 5749
5809 5813 5815 5817 5818 5821 5823 5822 5824 5824 5824 5824 5825 5825 5826 5826 5827 5827 5826 5825 5824 5822 5819 5816 5813 5809 5806 5802 5800 5800 5799 5798 5796 5794 5792 5790 5787 5783 5780 5775 5772 5768 5764 5759 5755 5751 5746 5741 5736
5804 5807 5810 5812 5814 5816 5817 5817 5819 5818 5818 5818 5818 5818 5819 5819 5819 5819 5818 5817 5815 5813 5810 5808 5806 5802 5799 5797 5795 5793 5791 5790 5788 5786 5783 5780 5777 5773 5769 5765 5761 5757 5753 5749 5744 5739 5733 5728 5722
5799 5802 5805 5807 5808 5809 5811 5813 5813 5812 5812 5812 5812 5812 5812 5812 5812 5811 5810 5808 5806 5804 5802 5800 5798 5795 5792 5790 5787 5785 5783 5781 5779 5776 5773 5770 5766 5762 5758 5754 5749 5745 5740 5735 5729 5724 5718 5712 5707
5794 5797 5799 5800 5801 5802 5805 5806 5806 5807 5806 5806 5806 5806 5806 5805 5805 5804 5802 5800 5797 5795 5793 5791 5789 5787 5785 5782 5780 5777 5775 5772 5769 5766 5762 5758 5754 5750 5745 5740 5736 5731 5725 5720 5714 5708 5702 5696 5690
5787 5790 5790 5792 5794 5796 5797 5801 5799 5799 5800 5800 5800 5800 5799 5799 5798 5797 5794 5792 5790 5788 5785 5782 5780 5778 5776 5774 5771 5768 5765 5762 5759 5755 5751 5746 5742 5737 5732 5727 5722 5716 5710 5704 5698 5692 5687 5681 5675
5780 5781 5782 5784 5786 5789 5790 5793 5790 5791 5792 5793 5793 5793 5791 5790 5789 5788 5786 5784 5782 5779 5777 5773 5771 5769 5767 5765 5762 5759 5755 5752 5748 5743 5739 5734 5729 5723 5718 5713 5708 5702 5695 5689 5683 5677 5672 5665 5659